Time,TemperatureF,DewpointF,PressureIn,WindDirection,WindDirectionDegrees,WindSpeedMPH,WindSpeedGustMPH,Humidity,HourlyPrecipIn,Conditions,Clouds,dailyrainin,SoftwareType,DateUTC
2013-02-04 00:09:00,13.7,11.0,30.13,SSE,153,1.0,2.0,89,0.00,,,0.00,weatherlink.com 1.10,2013-02-04 05:09:00,
2013-02-04 00:24:00,13.6,11.0,30.13,SSE,155,1.0,2.0,89,0.00,,,0.00,weatherlink.com 1.10,2013-02-04 05:24:00,
2013-02-04 00:39:00,13.7,11.0,30.12,South,169,2.0,2.0,89,0.00,,,0.00,weatherlink.com 1.10,2013-02-04 05:39:00,
2013-02-04 00:54:00,14.3,12.0,30.12,South,191,2.0,4.0,89,0.00,,,0.00,weatherlink.com 1.10,2013-02-04 05:54:00,
2013-02-04 01:09:00,14.9,12.0,30.12,SSE,162,1.0,2.0,88,0.00,,,0.00,weatherlink.com 1.10,2013-02-04 06:09:00,
2013-02-04 01:24:00,15.5,13.0,30.12,SSW,210,1.0,2.0,89,0.00,,,0.00,weatherlink.com 1.10,2013-02-04 06:24:00,
2013-02-04 01:39:00,16.1,14.0,30.12,SSW,203,2.0,3.0,90,0.00,,,0.00,weatherlink.com 1.10,2013-02-04 06:39:00,
2013-02-04 01:54:00,16.7,14.0,30.12,SW,231,1.0,2.0,90,0.00,,,0.00,weatherlink.com 1.10,2013-02-04 06:54:00,
2013-02-04 02:09:00,17.2,15.0,30.11,SSW,210,1.0,3.0,90,0.00,,,0.00,weatherlink.com 1.10,2013-02-04 07:09:00,
2013-02-04 02:25:00,17.5,15.0,30.11,South,190,2.0,3.0,90,0.00,,,0.00,weatherlink.com 1.10,2013-02-04 07:25:00,
2013-02-04 02:40:00,17.5,15.0,30.11,South,179,1.0,2.0,90,0.00,,,0.00,weatherlink.com 1.10,2013-02-04 07:40:00,
2013-02-04 02:55:00,17.5,15.0,30.11,South,176,1.0,2.0,91,0.00,,,0.00,weatherlink.com 1.10,2013-02-04 07:55:00,
2013-02-04 03:10:00,17.4,15.0,30.11,SSE,158,0.0,2.0,91,0.00,,,0.00,weatherlink.com 1.10,2013-02-04 08:10:00,
2013-02-04 03:25:00,17.4,15.0,30.10,SSE,165,0.0,2.0,91,0.00,,,0.00,weatherlink.com 1.10,2013-02-04 08:25:00,
2013-02-04 03:40:00,17.4,15.0,30.10,SSE,158,1.0,2.0,91,0.00,,,0.00,weatherlink.com 1.10,2013-02-04 08:40:00,
2013-02-04 03:55:00,17.5,15.0,30.09,SSE,156,1.0,2.0,91,0.00,,,0.00,weatherlink.com 1.10,2013-02-04 08:55:00,
2013-02-04 04:10:00,17.6,16.0,30.08,SE,139,0.0,2.0,91,0.00,,,0.00,weatherlink.com 1.10,2013-02-04 09:10:00,
2013-02-04 04:25:00,17.8,16.0,30.07,SE,126,2.0,2.0,92,0.00,,,0.00,weatherlink.com 1.10,2013-02-04 09:25:00,
2013-02-04 04:40:00,17.9,16.0,30.06,East,89,1.0,4.0,92,0.00,,,0.00,weatherlink.com 1.10,2013-02-04 09:40:00,
2013-02-04 04:55:00,17.9,16.0,30.05,SSE,148,0.0,3.0,92,0.00,,,0.00,weatherlink.com 1.10,2013-02-04 09:55:00,
2013-02-04 05:10:00,18.0,16.0,30.05,SSE,153,1.0,2.0,92,0.00,,,0.00,weatherlink.com 1.10,2013-02-04 10:10:00,
2013-02-04 05:25:00,18.2,16.0,30.05,ESE,120,0.0,4.0,92,0.00,,,0.00,weatherlink.com 1.10,2013-02-04 10:25:00,
2013-02-04 05:40:00,18.3,16.0,30.04,ESE,111,5.0,6.0,92,0.00,,,0.00,weatherlink.com 1.10,2013-02-04 10:40:00,
2013-02-04 05:55:00,18.4,17.0,30.02,East,84,0.0,4.0,92,0.00,,,0.00,weatherlink.com 1.10,2013-02-04 10:55:00,
2013-02-04 06:10:00,18.6,17.0,30.02,ESE,108,0.0,1.0,92,0.00,,,0.00,weatherlink.com 1.10,2013-02-04 11:10:00,
2013-02-04 06:25:00,18.8,17.0,30.01,SE,143,0.0,1.0,92,0.00,,,0.00,weatherlink.com 1.10,2013-02-04 11:25:00,
2013-02-04 06:40:00,19.0,17.0,30.01,SE,124,0.0,1.0,92,0.00,,,0.00,weatherlink.com 1.10,2013-02-04 11:40:00,
2013-02-04 06:55:00,19.2,17.0,30.01,SE,129,2.0,3.0,92,0.00,,,0.00,weatherlink.com 1.10,2013-02-04 11:55:00,
2013-02-04 07:10:00,19.3,17.0,30.00,SE,135,1.0,4.0,92,0.00,,,0.00,weatherlink.com 1.10,2013-02-04 12:10:00,
2013-02-04 07:25:00,19.6,18.0,30.00,ESE,114,4.0,5.0,93,0.00,,,0.00,weatherlink.com 1.10,2013-02-04 12:25:00,
2013-02-04 07:40:00,19.9,18.0,29.99,ENE,61,0.0,4.0,93,0.00,,,0.00,weatherlink.com 1.10,2013-02-04 12:40:00,
2013-02-04 07:56:00,20.0,18.0,29.99,SE,145,0.0,3.0,92,0.00,,,0.00,weatherlink.com 1.10,2013-02-04 12:56:00,
2013-02-04 08:11:00,20.2,19.0,29.99,SE,142,0.0,1.0,93,0.00,,,0.00,weatherlink.com 1.10,2013-02-04 13:11:00,
2013-02-04 08:26:00,20.5,19.0,29.98,NNE,32,0.0,1.0,93,0.00,,,0.00,weatherlink.com 1.10,2013-02-04 13:26:00,
2013-02-04 08:41:00,20.6,19.0,29.99,NNE,30,0.0,2.0,92,0.00,,,0.00,weatherlink.com 1.10,2013-02-04 13:41:00,
2013-02-04 08:56:00,21.1,19.0,29.99,NE,54,2.0,2.0,92,0.00,,,0.00,weatherlink.com 1.10,2013-02-04 13:56:00,
2013-02-04 09:11:00,21.5,19.0,29.99,ENE,74,0.0,4.0,91,0.00,,,0.00,weatherlink.com 1.10,2013-02-04 14:11:00,
2013-02-04 09:26:00,21.9,20.0,29.98,East,90,1.0,4.0,90,0.00,,,0.00,weatherlink.com 1.10,2013-02-04 14:26:00,
2013-02-04 09:41:00,22.3,20.0,29.97,East,84,1.0,5.0,89,0.00,,,0.00,weatherlink.com 1.10,2013-02-04 14:41:00,
2013-02-04 09:56:00,22.5,20.0,29.96,ESE,113,3.0,5.0,88,0.00,,,0.00,weatherlink.com 1.10,2013-02-04 14:56:00,
2013-02-04 10:11:00,22.8,20.0,29.96,East,95,0.0,7.0,87,0.00,,,0.00,weatherlink.com 1.10,2013-02-04 15:11:00,
2013-02-04 10:26:00,23.4,20.0,29.95,East,96,1.0,5.0,86,0.00,,,0.00,weatherlink.com 1.10,2013-02-04 15:26:00,
2013-02-04 10:41:00,24.3,20.0,29.95,NE,37,2.0,6.0,84,0.00,,,0.00,weatherlink.com 1.10,2013-02-04 15:41:00,
2013-02-04 10:56:00,24.4,20.0,29.94,SSE,150,3.0,6.0,84,0.00,,,0.00,weatherlink.com 1.10,2013-02-04 15:56:00,
2013-02-04 11:11:00,24.9,20.0,29.94,SE,132,1.0,8.0,83,0.00,,,0.00,weatherlink.com 1.10,2013-02-04 16:11:00,
2013-02-04 11:26:00,25.4,21.0,29.94,East,99,2.0,4.0,83,0.00,,,0.00,weatherlink.com 1.10,2013-02-04 16:26:00,
2013-02-04 11:41:00,24.9,21.0,29.94,East,91,1.0,5.0,84,0.00,,,0.00,weatherlink.com 1.10,2013-02-04 16:41:00,
2013-02-04 11:56:00,24.5,21.0,29.93,ESE,122,4.0,5.0,86,0.00,,,0.00,weatherlink.com 1.10,2013-02-04 16:56:00,
2013-02-04 12:11:00,24.8,21.0,29.92,SE,132,0.0,6.0,86,0.00,,,0.00,weatherlink.com 1.10,2013-02-04 17:11:00,
2013-02-04 12:26:00,24.8,21.0,29.91,ESE,123,3.0,6.0,85,0.00,,,0.00,weatherlink.com 1.10,2013-02-04 17:26:00,
2013-02-04 12:41:00,25.0,21.0,29.91,East,84,1.0,5.0,85,0.00,,,0.00,weatherlink.com 1.10,2013-02-04 17:41:00,
2013-02-04 12:56:00,25.3,21.0,29.90,North,9,2.0,3.0,85,0.00,,,0.00,weatherlink.com 1.10,2013-02-04 17:56:00,
2013-02-04 13:11:00,25.5,22.0,29.89,SSE,150,3.0,5.0,85,0.00,,,0.00,weatherlink.com 1.10,2013-02-04 18:11:00,
2013-02-04 13:26:00,25.9,22.0,29.89,East,91,1.0,4.0,84,0.00,,,0.00,weatherlink.com 1.10,2013-02-04 18:26:00,
2013-02-04 13:41:00,26.0,22.0,29.89,ENE,60,1.0,5.0,84,0.00,,,0.00,weatherlink.com 1.10,2013-02-04 18:41:00,
2013-02-04 13:56:00,26.3,22.0,29.88,SSE,150,1.0,5.0,84,0.00,,,0.00,weatherlink.com 1.10,2013-02-04 18:56:00,
2013-02-04 14:11:00,26.2,22.0,29.88,SE,128,1.0,4.0,84,0.00,,,0.00,weatherlink.com 1.10,2013-02-04 19:11:00,
2013-02-04 14:27:00,26.3,22.0,29.89,ESE,123,0.0,4.0,85,0.00,,,0.00,weatherlink.com 1.10,2013-02-04 19:27:00,
2013-02-04 14:42:00,26.4,22.0,29.88,East,87,1.0,4.0,84,0.00,,,0.00,weatherlink.com 1.10,2013-02-04 19:42:00,
2013-02-04 14:57:00,26.9,23.0,29.88,North,9,0.0,3.0,84,0.00,,,0.00,weatherlink.com 1.10,2013-02-04 19:57:00,
2013-02-04 15:12:00,26.9,22.0,29.88,ENE,60,1.0,2.0,83,0.00,,,0.00,weatherlink.com 1.10,2013-02-04 20:12:00,
2013-02-04 15:27:00,27.2,23.0,29.87,NE,52,1.0,2.0,83,0.00,,,0.00,weatherlink.com 1.10,2013-02-04 20:27:00,
2013-02-04 15:42:00,27.1,23.0,29.89,NE,50,2.0,3.0,83,0.00,,,0.00,weatherlink.com 1.10,2013-02-04 20:42:00,
2013-02-04 15:57:00,26.9,22.0,29.88,NNW,331,1.0,3.0,83,0.00,,,0.00,weatherlink.com 1.10,2013-02-04 20:57:00,
2013-02-04 16:12:00,27.0,23.0,29.89,North,358,1.0,3.0,83,0.00,,,0.00,weatherlink.com 1.10,2013-02-04 21:12:00,
2013-02-04 16:27:00,26.7,22.0,29.89,NE,36,1.0,4.0,83,0.00,,,0.00,weatherlink.com 1.10,2013-02-04 21:27:00,
2013-02-04 16:42:00,26.4,22.0,29.89,North,11,2.0,3.0,84,0.00,,,0.00,weatherlink.com 1.10,2013-02-04 21:42:00,
2013-02-04 16:57:00,26.0,22.0,29.89,NNE,26,1.0,4.0,85,0.00,,,0.00,weatherlink.com 1.10,2013-02-04 21:57:00,
2013-02-04 17:12:00,25.8,22.0,29.89,NNE,21,0.0,3.0,85,0.00,,,0.00,weatherlink.com 1.10,2013-02-04 22:12:00,
2013-02-04 17:27:00,25.6,22.0,29.89,North,4,1.0,3.0,86,0.00,,,0.00,weatherlink.com 1.10,2013-02-04 22:27:00,
2013-02-04 17:42:00,25.4,22.0,29.88,ENE,75,0.0,2.0,86,0.00,,,0.00,weatherlink.com 1.10,2013-02-04 22:42:00,
2013-02-04 17:57:00,25.1,22.0,29.88,NE,51,2.0,4.0,86,0.00,,,0.00,weatherlink.com 1.10,2013-02-04 22:57:00,
2013-02-04 18:12:00,24.9,22.0,29.89,NE,34,2.0,4.0,87,0.00,,,0.00,weatherlink.com 1.10,2013-02-04 23:12:00,
2013-02-04 18:27:00,24.7,21.0,29.89,NE,43,1.0,3.0,87,0.00,,,0.00,weatherlink.com 1.10,2013-02-04 23:27:00,
2013-02-04 18:42:00,24.6,21.0,29.90,North,11,1.0,3.0,87,0.00,,,0.00,weatherlink.com 1.10,2013-02-04 23:42:00,
2013-02-04 18:57:00,24.4,21.0,29.91,North,4,2.0,3.0,88,0.00,,,0.00,weatherlink.com 1.10,2013-02-04 23:57:00,
2013-02-04 19:12:00,24.3,21.0,29.93,North,356,1.0,3.0,88,0.00,,,0.00,weatherlink.com 1.10,2013-02-05 00:12:00,
2013-02-04 19:27:00,24.2,21.0,29.94,North,6,1.0,3.0,88,0.00,,,0.00,weatherlink.com 1.10,2013-02-05 00:27:00,
2013-02-04 19:42:00,24.2,21.0,29.94,NE,36,2.0,4.0,88,0.00,,,0.00,weatherlink.com 1.10,2013-02-05 00:42:00,
2013-02-04 19:57:00,24.0,21.0,29.95,NW,307,0.0,6.0,88,0.00,,,0.00,weatherlink.com 1.10,2013-02-05 00:57:00,
2013-02-04 20:12:00,23.9,21.0,29.96,NNE,13,1.0,5.0,89,0.00,,,0.00,weatherlink.com 1.10,2013-02-05 01:12:00,
2013-02-04 20:27:00,23.6,21.0,29.96,North,9,1.0,5.0,89,0.00,,,0.00,weatherlink.com 1.10,2013-02-05 01:27:00,
2013-02-04 20:42:00,23.4,21.0,29.96,WNW,297,2.0,4.0,89,0.00,,,0.00,weatherlink.com 1.10,2013-02-05 01:42:00,
2013-02-04 20:57:00,23.3,21.0,29.97,NE,36,3.0,3.0,90,0.00,,,0.00,weatherlink.com 1.10,2013-02-05 01:57:00,
2013-02-04 21:12:00,23.3,21.0,29.97,NW,312,2.0,3.0,90,0.00,,,0.00,weatherlink.com 1.10,2013-02-05 02:12:00,
2013-02-04 21:27:00,23.1,21.0,29.98,North,356,1.0,5.0,90,0.00,,,0.00,weatherlink.com 1.10,2013-02-05 02:27:00,
2013-02-04 21:42:00,23.1,21.0,29.97,North,350,0.0,3.0,90,0.00,,,0.00,weatherlink.com 1.10,2013-02-05 02:42:00,
2013-02-04 21:57:00,23.1,21.0,29.96,NNE,19,2.0,2.0,90,0.00,,,0.00,weatherlink.com 1.10,2013-02-05 02:57:00,
2013-02-04 22:13:00,23.0,21.0,29.96,North,6,0.0,2.0,90,0.00,,,0.00,weatherlink.com 1.10,2013-02-05 03:13:00,
2013-02-04 22:27:00,22.9,20.0,29.96,NNE,19,1.0,1.0,90,0.00,,,0.00,weatherlink.com 1.10,2013-02-05 03:27:00,
2013-02-04 22:42:00,22.9,20.0,29.97,NW,308,1.0,2.0,90,0.00,,,0.00,weatherlink.com 1.10,2013-02-05 03:42:00,
2013-02-04 22:57:00,22.9,20.0,29.99,NNW,346,1.0,2.0,90,0.00,,,0.00,weatherlink.com 1.10,2013-02-05 03:57:00,
2013-02-04 23:12:00,22.9,20.0,29.98,NW,307,1.0,3.0,90,0.00,,,0.00,weatherlink.com 1.10,2013-02-05 04:12:00,
2013-02-04 23:27:00,22.9,20.0,29.98,WNW,291,2.0,3.0,90,0.00,,,0.00,weatherlink.com 1.10,2013-02-05 04:27:00,
2013-02-04 23:42:00,22.8,20.0,29.98,NNW,332,0.0,4.0,90,0.00,,,0.00,weatherlink.com 1.10,2013-02-05 04:42:00,
2013-02-04 23:57:00,22.7,21.0,29.97,NE,37,2.0,2.0,91,0.00,,,0.00,weatherlink.com 1.10,2013-02-05 04:57:00,